RH
26 26 26 26 25 26 26 28 30 31 32 32 31 30 30 29 28 29 30 30 30 28 26 24 22 20 19 18 17 16 17 18 17 14 11 9 10 11 23 48 49 24 11 10 8 7 6 5 5 5 6 6 6 6 6 6 6 8 9 11 12 14 17 18 19 21 24 24 26 29 32 36 41 43 44 46 49 50 50 51 52 50 49 49 49
27 28 29 29 29 29 29 29 31 33 35 37 36 35 34 34 34 34 34 36 37 36 34 31 28 25 23 22 20 19 18 18 19 18 17 15 12 11 11 19 21 13 8 7 7 8 8 6 6 6 5 5 5 5 5 5 5 5 6 6 6 7 8 8 8 10 11 11 12 13 14 16 18 20 22 25 28 29 30 31 31 31 30 29 29
25 27 28 30 31 32 32 32 33 35 37 39 41 40 39 38 38 39 40 41 42 42 41 39 36 32 28 26 24 22 21 20 20 20 20 19 17 17 17 17 22 23 20 16 13 11 9 7 8 8 7 7 6 6 6 5 5 5 5 5 5 5 5 5 5 5 6 6 6 6 6 6 7 8 9 10 10 11 12 12 12 13 12 12 12
29 29 29 29 30 31 32 33 35 36 38 40 42 44 44 45 45 45 46 47 48 48 47 46 44 40 35 32 30 29 27 25 24 23 22 22 22 22 21 21 26 28 32 44 48 38 24 15 12 11 10 9 8 8 9 7 6 7 6 6 5 5 5 5 5 4 4 5 4 4 4 4 4 4 4 4 4 4 4 4 5 4 4 5 4
34 33 33 33 33 34 34 34 35 36 38 40 42 45 47 49 50 51 51 51 51 51 51 50 49 48 45 41 38 35 34 33 31 30 27 26 25 25 25 24 24 26 31 44 52 48 36 24 18 17 19 21 17 13 14 11 8 8 8 7 7 6 6 6 6 5 5 5 5 5 5 4 4 4 4 4 4 4 3 3 3 3 3 3 3
35 36 35 36 36 36 36 37 37 37 38 40 41 43 46 48 50 50 51 51 51 52 52 53 53 53 52 50 47 43 42 41 38 37 35 33 32 29 29 28 27 29 29 28 31 33 34 30 23 20 23 26 22 17 17 14 11 11 10 9 9 8 8 7 7 7 7 6 6 6 6 6 6 5 5 5 5 4 4 5 4 4 4 4 4
23 26 29 32 35 37 38 39 40 40 40 41 42 43 44 45 46 47 47 47 49 51 52 55 56 57 57 56 54 51 49 49 48 46 44 41 39 37 35 34 31 31 29 28 28 30 35 36 29 23 23 24 22 20 19 17 14 12 11 11 10 9 9 9 9 8 8 8 8 8 7 7 7 7 6 6 6 6 6 6 6 6 6 6 6
7 9 11 15 19 23 28 33 37 40 41 42 44 46 48 48 49 48 48 49 50 52 53 55 57 59 61 61 60 58 56 54 54 54 53 50 48 45 42 40 38 36 34 33 32 31 33 34 31 27 26 25 24 23 23 22 20 16 15 14 12 12 11 10 11 10 10 10 10 10 9 9 9 8 8 8 7 8 7 7 7 7 7 7 7
5 6 6 6 7 8 10 14 20 28 35 40 42 44 47 50 54 56 56 55 54 54 54 55 57 60 62 63 63 63 62 61 60 58 57 55 54 52 50 48 44 42 40 38 37 36 35 34 34 33 31 30 29 27 26 26 25 23 21 20 18 16 15 14 13 12 12 12 11 11 11 11 11 10 10 10 9 9 9 8 8 8 8 8 8
7 7 7 7 7 7 7 6 9 14 23 34 43 47 46 46 51 57 62 63 62 61 59 57 58 59 62 65 66 66 65 65 65 64 62 59 56 55 54 54 52 50 47 44 42 42 41 40 40 39 38 37 34 31 30 29 29 29 27 27 25 23 21 19 18 16 14 13 13 13 12 12 12 12 12 11 10 10 9 9 9 9 9 9 9
9 9 8 9 8 8 8 8 9 12 16 25 38 49 53 52 52 56 62 68 69 69 66 64 63 63 64 65 66 67 68 68 67 67 66 63 60 57 56 55 55 55 54 51 49 48 47 46 45 45 45 44 41 38 35 33 32 32 32 31 30 29 28 26 24 22 20 17 16 15 15 14 14 13 13 13 12 11 10 10 10 10 9 10 10
11 11 10 10 10 9 9 9 10 11 12 15 21 30 42 52 58 60 64 68 72 73 73 72 71 70 70 70 70 69 69 69 69 68 67 66 65 62 59 57 56 55 56 56 55 54 52 51 50 50 49 48 47 44 41 38 36 35 34 34 34 32 31 31 29 28 27 25 23 20 19 18 17 16 15 14 14 13 12 11 10 11 11 11 11
12 13 13 12 12 12 11 11 11 12 12 13 13 14 19 31 44 54 61 66 70 71 72 74 75 76 76 77 77 78 77 77 76 75 72 70 69 68 65 62 59 57 55 56 57 57 56 57 56 55 54 52 50 47 44 41 39 38 36 36 36 33 32 32 32 31 32 31 30 28 26 25 24 22 20 18 17 15 14 13 12 12 12 12 12
15 14 15 14 14 14 14 14 14 14 15 15 15 14 13 15 21 30 39 49 60 67 69 69 69 70 72 75 79 82 84 85 87 89 88 82 76 73 71 68 66 63 58 56 56 57 58 60 61 60 58 56 53 50 48 46 42 40 39 39 38 35 33 34 34 34 34 33 33 33 32 32 31 28 27 25 22 20 18 17 16 14 13 13 14
17 18 18 17 16 16 17 17 17 17 17 18 18 18 18 17 16 17 18 24 35 50 63 70 72 70 68 69 72 76 78 79 81 85 92 95 89 82 78 76 73 72 69 65 62 60 59 60 62 63 62 60 57 54 52 50 46 43 42 42 41 39 37 37 37 36 36 36 35 35 35 35 34 33 33 31 29 27 24 22 23 21 18 17 17
31 26 22 19 17 17 18 20 22 22 21 22 22 22 22 22 22 21 20 19 20 26 37 49 59 67 73 77 76 75 75 76 76 78 83 92 96 94 90 87 84 81 79 77 75 72 68 65 63 63 64 63 62 59 56 54 50 47 45 44 43 43 42 41 41 40 40 40 38 38 38 37 37 37 36 35 34 33 30 28 28 28 26 24 22
78 68 54 42 35 30 24 23 25 27 28 28 28 27 26 25 26 25 25 25 25 27 30 33 32 32 41 59 75 82 83 80 80 80 81 85 92 96 97 97 97 95 92 89 87 86 84 81 78 74 71 68 65 64 62 60 57 53 51 49 48 46 45 45 45 46 48 48 45 42 40 38 38 38 38 38 37 36 36 35 33 33 32 31 29
102 100 92 85 80 66 46 34 30 31 36 38 36 36 35 34 33 32 30 28 27 29 34 43 48 41 29 27 39 56 73 82 85 85 85 85 86 89 94 98 100 100 100 99 97 97 97 96 94 91 87 84 78 72 67 64 62 60 59 57 55 52 49 48 48 50 53 56 56 53 48 45 43 41 40 40 41 40 39 39 38 38 37 36 35
100 102 102 103 102 92 78 66 52 41 40 42 41 41 42 43 42 40 37 35 32 28 27 32 44 54 53 41 31 30 41 59 75 84 90 93 91 88 88 91 95 98 100 102 101 101 101 100 99 99 99 98 95 90 82 74 67 64 63 64 65 62 57 53 52 52 53 56 60 61 59 56 53 50 46 43 43 44 44 43 43 42 41 41 40
100 101 102 102 101 97 94 90 78 61 50 47 50 52 53 53 52 50 47 43 41 37 34 30 28 32 40 44 42 36 31 34 45 58 72 84 93 95 92 90 91 95 98 101 100 95 93 93 94 96 99 100 102 101 98 92 84 77 71 68 70 71 69 65 61 58 56 57 60 63 63 62 61 59 56 53 49 46 47 47 47 47 47 46 45
99 99 101 100 100 101 98 94 90 81 68 59 60 62 62 63 65 64 61 56 53 49 45 42 38 33 30 31 33 34 31 28 27 30 37 48 64 79 89 91 92 94 98 101 99 93 89 91 93 95 98 100 101 101 102 102 100 95 88 81 77 78 79 79 77 73 69 66 66 68 68 67 68 65 62 64 63 58 54 52 51 51 51 51 50
90 94 97 92 89 93 93 90 88 85 76 68 67 66 63 64 69 74 73 69 65 62 58 55 52 47 41 36 33 31 30 28 25 23 22 23 29 41 53 62 70 79 89 99 102 97 90 90 93 97 99 101 101 100 101 102 103 102 100 97 93 89 87 87 88 88 85 81 79 80 80 79 77 74 68 66 69 69 67 64 61 58 55 54 53
80 85 88 84 79 79 82 83 82 80 75 68 64 62 59 57 59 65 71 74 72 67 65 63 61 58 52 46 40 37 34 31 29 27 24 22 21 22 24 27 31 40 54 72 88 96 96 92 90 93 96 99 101 101 102 102 102 102 102 102 100 99 97 95 95 95 95 94 91 88 90 92 94 91 82 74 71 72 74 73 72 70 66 61 57
89 88 87 85 81 76 74 74 75 75 73 68 62 58 55 52 49 50 54 61 66 68 68 66 65 63 60 56 50 44 40 36 34 31 29 27 24 22 21 20 18 18 22 31 45 64 80 86 86 86 89 92 95 98 102 102 101 101 102 102 101 101 101 101 100 99 99 100 99 95 93 96 101 102 99 94 84 73 71 72 73 74 74 73 71
84 84 83 84 82 81 79 76 75 74 72 71 68 64 60 57 55 54 54 55 58 61 65 67 68 68 66 64 61 57 51 45 39 35 33 31 29 26 25 23 21 19 18 17 19 26 39 51 60 67 75 82 87 91 96 101 102 101 102 102 102 102 103 103 102 101 101 102 102 100 96 96 99 100 102 104 98 84 75 72 71 72 73 76 79
47 49 51 55 59 63 67 70 72 74 74 75 74 72 69 65 61 58 58 59 60 61 62 62 63 65 67 68 68 67 66 61 54 47 41 38 35 31 29 28 27 24 22 20 19 17 18 22 28 34 42 54 66 73 81 91 99 102 101 100 101 102 102 102 103 102 101 102 101 101 101 99 100 101 100 100 99 96 91 84 78 74 72 73 77
31 30 29 31 33 35 37 39 43 47 53 59 64 68 71 71 71 68 64 61 59 59 61 62 61 59 59 61 64 66 69 70 69 64 57 52 48 41 36 33 31 30 27 24 22 20 19 17 17 17 18 22 31 39 49 63 82 96 101 101 100 102 102 101 102 103 101 100 100 101 103 102 103 103 101 99 99 99 100 98 94 90 85 80 77
40 39 38 38 38 35 30 26 26 26 27 30 34 40 47 53 59 64 67 68 65 62 62 63 63 62 59 57 57 60 63 66 69 69 67 64 61 55 47 40 36 34 32 30 28 24 22 20 18 16 15 13 14 16 20 29 47 70 90 99 100 102 103 101 101 102 101 101 101 101 101 101 103 104 101 100 101 100 102 102 101 101 101 98 91
46 46 46 46 44 40 35 32 29 28 27 26 25 25 26 30 34 38 44 49 54 57 58 59 61 63 64 63 60 58 59 61 63 65 65 66 67 65 58 50 44 40 37 36 35 32 29 26 23 20 17 15 14 13 13 14 21 38 64 87 99 103 103 102 102 102 100 100 101 102 102 101 101 102 101 101 100 101 103 103 102 102 103 104 102
50 48 47 47 45 42 41 40 37 35 34 32 30 28 27 26 26 26 27 28 30 34 37 41 46 51 57 61 62 60 59 60 61 63 63 63 65 68 66 60 54 48 44 41 40 38 36 33 30 27 23 21 18 16 15 14 15 20 34 59 84 99 103 101 100 100 101 101 101 100 101 102 102 102 102 101 101 101 102 102 100 101 102 103 103
54 51 49 50 50 49 49 48 45 43 41 40 38 37 35 33 30 28 26 24 23 22 21 22 24 29 35 41 46 49 51 52 55 58 61 62 63 66 68 67 64 58 53 49 46 44 42 40 39 35 31 28 25 22 20 18 17 17 18 27 46 71 92 101 102 100 99 100 101 101 100 100 101 102 102 101 101 101 102 102 101 100 101 101 101
60 58 59 60 59 61 63 61 57 52 50 49 49 50 49 47 45 41 36 31 27 23 20 18 16 17 19 21 24 28 32 36 40 45 50 55 59 62 65 67 68 65 60 56 53 51 49 47 45 43 41 38 34 30 27 24 22 21 20 19 21 31 51 74 91 101 103 101 99 100 101 101 100 100 100 101 101 102 101 100 101 101 101 100 101
68 68 71 73 72 73 76 76 74 70 65 61 60 61 61 60 60 56 50 45 40 33 27 22 19 17 15 15 15 15 16 19 22 27 32 39 45 52 57 62 66 68 65 61 58 57 56 55 53 50 48 47 45 42 38 34 31 28 26 25 23 20 22 30 46 68 88 100 103 101 99 99 100 101 100 99 100 101 101 100 100 101 100 100 102
76 76 78 78 76 77 81 84 85 82 77 74 73 72 69 68 68 64 60 57 53 48 44 39 32 25 18 14 13 13 12 12 13 15 17 21 27 34 42 51 57 62 65 65 64 61 59 59 60 58 56 54 53 52 49 46 42 39 36 33 29 27 25 22 21 27 42 65 87 100 103 101 99 99 100 101 101 100 100 100 100 101 101 100 100
83 83 85 83 77 76 79 83 87 89 87 86 86 82 76 73 72 67 64 64 61 59 59 56 49 40 30 21 17 14 13 12 13 12 11 12 14 18 25 35 45 52 58 62 67 69 66 64 63 64 63 61 60 60 58 55 52 49 47 43 38 34 31 29 27 24 22 27 41 62 82 96 103 102 99 98 99 101 101 100 100 100 100 101 101
87 89 92 91 84 80 82 84 86 90 94 94 92 90 86 82 80 78 74 71 69 68 67 64 61 54 45 38 31 23 17 14 14 13 13 12 12 12 15 19 28 38 46 53 61 69 73 72 70 69 67 66 66 65 63 61 59 56 52 48 45 42 38 35 32 31 29 26 23 26 37 54 75 93 102 103 100 99 99 100 101 101 100 100 99
87 93 98 99 93 88 91 95 94 94 96 96 92 91 89 87 88 91 90 87 84 81 75 71 68 63 56 51 45 36 28 23 20 18 18 17 15 15 15 15 17 23 31 40 49 59 68 72 71 70 69 67 67 67 66 63 61 59 56 52 48 45 42 40 37 34 32 30 29 27 25 25 32 48 69 87 98 103 102 100 99 99 100 101 101
87 93 98 101 100 95 95 99 100 98 98 96 93 91 92 94 98 101 103 102 99 95 90 84 78 72 64 57 52 45 38 34 30 28 27 25 22 19 18 17 16 17 21 28 35 45 55 61 63 64 64 63 63 63 63 62 61 60 57 54 52 48 45 42 39 38 35 32 30 30 29 28 25 24 29 42 60 78 93 100 103 102 100 99 99
91 97 101 103 103 102 99 100 101 101 99 97 95 94 96 101 104 104 104 103 102 102 101 98 93 88 77 65 56 50 45 42 40 38 35 32 29 26 23 21 19 18 19 22 26 33 40 46 49 51 52 54 55 56 57 57 57 57 56 54 52 49 47 44 41 39 37 36 34 32 30 29 28 26 24 23 26 34 47 64 81 93 100 103 102
91 97 102 104 105 105 103 102 101 100 99 98 95 94 98 103 105 104 103 102 101 101 102 101 101 101 95 84 74 64 57 54 53 50 48 43 37 33 30 26 23 22 22 24 27 31 36 42 45 47 49 51 52 53 55 56 56 55 55 54 52 49 47 45 44 42 39 37 36 35 34 32 29 27 26 26 25 24 23 26 36 48 63 78 90
93 99 99 98 100 102 104 104 102 98 94 93 92 94 99 102 104 104 104 102 101 100 100 100 101 102 101 99 95 89 84 82 80 78 78 76 71 66 62 57 53 49 47 50 53 54 56 58 59 59 59 59 58 58 57 58 58 57 56 54 52 50 47 45 43 42 40 39 38 36 35 34 32 30 28 27 27 26 25 23 22 21 24 32 45
92 99 99 95 95 100 103 106 106 100 93 89 90 94 101 102 101 102 103 104 105 103 101 100 100 100 100 101 101 100 99 99 99 98 99 99 97 95 95 93 90 87 85 85 84 80 78 76 73 69 66 63 61 59 57 56 55 53 52 51 49 47 45 44 43 41 38 37 36 36 35 33 32 31 30 29 28 26 26 25 24 23 21 18 19
89 94 95 93 94 99 103 106 106 101 96 93 92 95 101 103 101 102 103 104 106 104 101 100 100 100 100 100 100 100 100 100 101 100 99 100 101 100 101 102 102 102 103 102 97 91 85 81 76 70 66 62 58 54 51 49 47 45 43 42 40 39 37 35 35 34 33 33 32 31 30 29 29 28 27 27 27 26 26 24 24 24 23 28 41
88 92 94 92 91 95 101 106 107 102 99 98 97 98 103 104 102 101 103 103 103 102 100 100 100 100 100 100 100 100 100 100 100 100 101 103 104 104 103 101 98 95 93 91 86 79 73 68 64 59 56 52 49 46 43 40 37 35 34 33 32 30 30 30 30 29 28 27 27 27 26 25 25 25 25 25 24 24 24 24 26 26 26 45 78
84 89 93 92 90 92 97 102 104 103 101 103 103 102 104 106 103 101 101 100 100 100 99 100 100 100 100 100 100 100 100 100 100 101 104 106 107 107 105 101 94 88 84 82 78 74 70 68 65 64 62 60 58 56 52 48 45 44 44 42 39 33 29 29 31 31 32 32 34 35 34 32 30 29 28 28 27 27 26 26 29 28 27 48 86
85 86 89 92 92 93 95 99 102 102 101 106 109 105 103 104 103 101 100 99 99 102 102 100 100 100 100 100 100 100 100 100 100 100 101 103 104 104 105 105 102 98 94 92 90 89 87 86 85 84 82 80 80 79 76 73 73 75 78 79 75 66 54 45 42 41 41 40 40 43 45 45 45 43 40 38 36 35 34 32 35 35 29 38 71
83 88 89 90 93 95 95 95 98 99 99 103 109 108 106 105 102 101 100 99 101 105 105 101 100 100 100 100 100 100 100 101 100 100 100 100 100 100 101 103 105 105 102 99 98 97 97 96 96 96 94 91 91 92 93 94 93 94 97 100 99 94 84 75 73 77 75 65 54 48 45 46 49 52 51 48 45 43 41 38 38 41 39 38 58
69 87 95 94 93 96 96 92 90 92 95 99 105 109 110 109 105 101 100 101 102 104 104 102 101 100 100 99 100 101 102 102 100 100 100 100 100 100 100 100 102 104 106 106 105 105 104 104 104 102 100 99 98 98 100 101 98 97 97 97 96 94 89 85 88 98 104 98 84 72 60 50 47 48 50 52 53 52 49 45 43 46 50 48 53
52 71 91 100 97 94 94 93 90 89 91 94 100 106 111 112 108 103 101 101 101 101 101 101 101 100 100 100 100 100 102 102 100 100 100 100 100 100 100 100 100 100 103 105 106 106 107 108 108 108 107 106 105 103 103 102 100 97 97 97 94 91 87 84 87 96 103 103 99 94 87 75 62 51 44 46 53 57 57 55 51 50 57 62 60
48 54 73 95 104 99 95 96 96 94 91 92 95 101 107 111 111 108 102 100 101 101 100 100 101 101 101 101 101 101 102 101 100 100 100 100 101 101 100 101 101 100 100 101 101 102 103 102 103 104 106 105 105 105 105 104 101 98 97 97 97 95 91 88 88 93 98 100 99 98 98 94 84 67 51 43 45 51 56 59 60 58 61 68 70
47 48 55 73 94 104 103 102 101 100 98 96 97 100 103 105 108 109 105 100 99 101 101 100 100 101 102 102 102 102 102 100 100 101 101 100 100 100 100 101 102 102 101 100 100 100 100 100 100 100 101 101 101 102 103 102 100 99 101 102 102 101 99 97 94 95 98 101 100 98 98 98 91 78 62 51 46 47 50 54 59 62 64 68 73
Wind_Speed
51 52 52 52 51 50 49 48 48 48 48 48 47 47 47 47 46 45 44 44 44 44 43 43 45 46 45 45 46 47 47 48 49 49 50 50 52 54 54 52 53 53 52 54 54 53 54 54 54 54 55 55 55 55 55 55 54 54 54 53 52 52 52 52 51 51 52 53 53 53 53 53 54 54 54 53 54 54 54 54 54 54 54 54 54
53 54 54 54 54 54 53 52 51 51 50 50 50 50 50 49 49 48 47 46 46 46 45 45 46 48 47 46 46 46 47 48 49 49 50 51 52 55 55 54 55 54 55 56 56 55 56 56 55 54 55 55 55 55 55 54 52 52 52 51 51 50 51 51 50 51 52 53 53 54 54 54 54 54 53 53 53 54 54 54 54 54 55 55 54
55 56 56 56 56 57 57 56 55 55 54 53 53 52 52 52 52 51 50 50 49 49 49 47 47 48 49 48 48 47 47 48 48 49 50 51 52 53 54 54 54 54 55 57 57 57 57 56 56 55 56 56 55 55 55 53 52 52 51 51 50 50 50 50 50 51 52 53 53 53 52 53 54 53 52 53 53 54 54 54 54 54 55 54 54
55 56 57 57 58 59 59 59 59 58 57 56 56 55 55 54 54 54 54 53 52 52 52 51 50 49 50 51 50 50 49 49 49 49 49 50 51 52 53 53 53 55 55 55 56 57 57 56 56 57 57 57 56 55 54 53 53 53 52 51 51 51 51 50 50 51 52 53 53 52 51 52 52 50 51 51 52 52 52 52 52 52 52 52 51
57 57 57 57 58 59 60 60 61 60 59 58 58 58 58 58 57 57 56 56 56 55 55 55 54 52 53 52 52 52 52 52 51 51 50 50 50 51 52 52 53 55 55 56 56 56 57 57 57 57 56 56 55 55 54 53 54 54 54 54 53 52 52 51 51 52 53 53 53 53 52 52 50 49 50 50 50 50 50 50 50 50 50 50 50
59 60 60 60 60 60 60 60 61 62 62 61 61 60 60 61 61 60 60 59 59 59 58 58 58 57 56 55 55 55 54 55 55 54 53 53 52 52 53 53 54 56 56 56 57 57 57 58 58 56 55 55 55 55 55 54 54 56 56 56 55 55 54 54 53 54 55 55 55 54 54 53 51 51 51 51 51 51 51 51 50 50 50 50 50
60 60 60 61 61 60 60 60 61 62 63 64 64 64 64 64 64 63 63 62 62 62 61 61 61 60 59 59 58 58 57 57 58 57 56 56 55 55 55 54 55 56 57 56 56 57 57 59 60 58 56 57 56 55 55 55 55 57 58 57 57 57 57 56 56 56 57 57 56 56 55 54 53 53 52 52 52 52 52 52 52 52 52 52 52
59 60 60 60 60 60 60 59 60 60 62 63 64 65 66 66 66 66 65 64 64 64 64 64 64 64 63 62 62 61 60 60 60 60 60 59 59 58 58 57 56 56 57 57 57 57 58 59 60 59 57 57 57 56 56 56 56 57 58 58 58 58 58 58 58 58 58 58 58 58 57 56 55 53 53 53 54 54 54 54 53 53 53 52 52
60 60 60 60 60 60 60 59 59 59 60 61 63 64 66 66 67 67 66 65 65 65 66 67 67 67 66 65 65 64 64 63 63 63 63 63 62 62 62 61 59 58 58 58 59 59 59 59 60 60 58 57 57 57 56 56 56 57 58 59 59 59 59 59 59 59 59 59 60 59 59 59 57 56 55 55 55 55 55 54 54 54 53 53 53
62 62 62 62 62 61 61 60 59 59 58 59 60 62 64 65 66 67 67 67 66 67 68 68 69 69 69 68 67 66 66 66 66 65 65 65 65 65 65 64 63 62 61 60 60 60 60 60 61 61 60 58 58 57 56 56 56 57 58 59 60 60 60 59 59 58 59 60 60 60 60 60 59 58 57 56 56 55 55 55 54 54 54 55 55
63 63 63 63 63 63 62 61 61 60 60 59 60 61 62 64 65 66 67 67 67 68 69 70 70 70 70 70 70 68 68 68 68 68 68 68 68 68 68 67 67 66 65 63 63 62 61 61 62 62 62 61 59 58 57 56 57 57 58 59 60 60 60 59 59 58 58 59 60 61 61 60 59 58 58 57 57 56 56 56 56 56 56 57 57
64 63 63 63 63 64 63 63 62 62 62 62 62 63 64 66 66 65 66 67 68 68 69 70 70 70 71 71 71 70 69 69 69 70 70 71 71 72 71 70 69 68 68 67 66 64 64 64 64 64 63 63 61 61 59 58 58 59 59 59 60 61 60 60 60 59 58 59 60 61 61 61 60 59 59 59 58 58 58 58 58 58 58 58 58
65 65 64 64 64 65 65 65 65 64 64 64 64 64 65 67 69 70 70 69 70 70 71 72 72 71 72 73 73 73 73 73 72 72 73 74 74 75 75 74 73 71 70 70 69 68 67 66 66 66 65 65 64 63 62 61 60 62 62 61 62 62 60 59 60 59 59 60 60 61 62 62 61 60 61 61 60 60 60 59 59 59 59 59 59
66 66 66 66 66 66 66 67 67 67 66 66 65 65 65 66 69 72 74 75 76 75 75 75 75 75 75 75 75 76 76 76 76 76 76 76 77 77 78 77 76 75 73 72 71 71 70 69 68 68 67 67 67 66 65 64 63 63 64 63 63 64 62 59 59 60 60 61 61 61 62 62 62 62 62 62 62 62 61 61 60 60 60 60 59
66 67 67 67 68 68 68 67 68 69 68 68 67 67 66 66 67 69 72 75 78 80 80 79 79 78 78 78 77 77 77 76 77 77 78 78 79 79 79 79 79 78 77 75 74 73 73 72 71 71 69 69 69 69 68 67 65 65 66 65 65 66 65 62 61 61 61 61 62 62 62 63 63 64 64 63 63 63 63 63 63 62 62 61 60
67 68 68 68 69 69 69 67 67 68 69 69 68 68 67 67 67 67 68 71 74 78 82 83 83 82 80 80 79 78 78 77 77 77 78 79 81 82 81 81 80 80 79 78 76 75 74 74 73 73 72 72 71 70 70 69 68 67 67 67 67 67 68 67 64 63 62 61 63 63 63 63 64 64 65 64 64 64 64 65 65 64 63 62 61
65 67 68 69 70 70 70 69 68 67 68 68 68 69 68 68 67 67 68 68 70 72 76 80 84 85 84 83 81 80 79 79 78 78 78 79 81 82 83 83 83 82 82 81 80 78 77 76 75 75 74 74 74 73 72 71 70 69 68 67 68 69 70 70 68 67 65 64 64 64 64 64 65 65 65 65 65 65 66 66 66 65 64 64 63
56 58 60 63 67 70 72 73 72 71 70 70 70 70 70 70 70 70 70 70 71 72 72 74 78 81 84 85 85 84 82 82 81 80 79 80 80 82 83 84 85 84 84 84 83 82 81 80 79 78 77 77 76 75 74 74 73 72 70 69 69 70 72 73 71 70 68 68 67 66 65 65 65 66 66 66 67 67 67 67 67 66 65 65 63
54 55 58 62 68 72 74 75 76 76 75 74 73 72 72 72 72 72 73 73 74 75 75 76 76 77 80 83 85 86 86 86 85 84 83 81 81 81 82 83 84 85 85 85 85 84 83 82 82 82 81 81 80 78 77 77 77 76 73 71 70 71 73 74 73 71 70 71 70 69 68 66 64 65 66 67 68 68 68 69 68 67 66 65 64
63 64 66 69 72 74 74 74 76 78 79 78 76 76 75 75 74 75 75 75 76 77 77 78 78 79 79 80 83 85 86 87 88 88 88 86 85 83 82 82 83 84 84 85 85 84 83 82 82 82 83 84 84 82 80 79 80 79 77 75 72 72 73 74 74 72 70 71 72 72 71 69 67 66 66 67 68 69 69 70 70 69 68 67 66
69 67 67 68 70 73 76 77 78 80 82 81 81 80 79 78 78 78 78 78 78 78 79 79 80 81 80 80 81 83 85 86 87 88 89 90 90 88 86 85 84 84 85 85 84 83 82 81 81 81 82 84 85 84 83 81 81 81 80 79 76 75 74 74 74 73 72 71 72 73 74 73 71 70 68 67 67 68 70 71 71 71 70 69 68
71 67 67 69 72 74 77 79 81 83 85 85 85 85 85 84 82 82 82 82 82 82 81 81 81 82 83 82 82 82 83 84 86 87 88 89 90 91 91 90 89 88 87 87 86 84 83 82 81 81 82 83 84 85 84 83 82 81 80 80 79 78 77 75 74 74 74 72 71 72 73 73 73 73 73 71 69 68 69 71 71 72 72 71 70
74 73 74 76 78 78 79 80 82 84 87 88 89 89 89 89 88 86 85 85 85 85 85 84 84 83 84 84 84 84 84 84 84 85 86 87 88 89 91 92 92 91 90 89 88 87 86 85 84 84 84 84 84 84 84 84 83 82 81 81 80 79 79 78 76 75 75 74 73 73 72 73 74 75 75 75 74 73 72 72 71 71 72 72 72
79 80 81 83 84 84 85 86 87 88 90 92 93 94 94 94 94 93 91 89 88 88 88 87 86 85 85 84 84 84 85 85 85 85 85 86 86 87 88 89 90 91 91 91 90 89 88 88 87 87 87 87 86 85 85 84 82 82 82 82 82 81 80 79 78 77 76 76 76 76 75 74 75 75 75 76 77 78 77 76 75 73 72 71 71
82 83 84 86 87 88 88 89 90 91 91 93 94 96 97 98 98 97 96 95 93 92 91 90 89 88 87 86 85 84 84 84 85 85 85 85 86 86 85 86 87 88 89 90 90 89 89 89 90 91 91 91 90 89 88 86 84 83 82 82 82 83 83 82 81 80 80 80 80 79 78 78 79 79 77 77 78 80 80 80 79 77 76 73 72
76 78 80 82 84 85 87 88 89 90 91 92 93 94 96 97 98 99 98 97 97 95 94 93 93 92 91 89 87 85 85 84 84 84 84 84 85 86 85 84 84 85 85 86 87 88 89 89 90 91 93 94 93 93 92 90 88 86 84 83 82 82 82 83 83 82 82 82 82 82 81 81 82 82 82 80 79 79 80 81 81 80 80 78 76
69 71 73 75 77 80 82 84 86 88 90 91 93 94 95 97 98 99 99 100 99 98 97 96 96 95 95 93 91 89 87 86 85 85 84 83 84 85 85 84 83 82 82 83 84 85 86 87 88 89 90 91 92 93 94 94 92 90 88 86 84 83 82 81 82 82 82 82 83 83 83 83 83 84 83 83 82 80 80 80 81 81 82 82 81
64 66 67 69 71 75 77 79 81 82 84 86 88 90 92 95 97 99 100 101 102 101 100 99 98 97 97 96 94 92 90 88 87 87 86 84 83 83 84 84 83 82 81 81 81 82 82 83 84 85 86 87 88 89 91 92 93 93 92 90 88 86 84 83 82 81 81 82 82 83 84 84 84 84 84 83 83 82 81 81 81 82 83 84 84
62 63 64 66 69 71 74 75 76 76 77 78 80 81 84 86 90 93 96 100 103 104 103 103 102 101 100 99 98 96 93 91 89 88 87 85 84 83 84 84 84 83 82 81 80 80 80 80 80 81 82 83 83 84 85 87 89 91 92 92 91 89 88 86 85 83 82 82 82 83 83 84 84 85 85 84 84 85 85 84 84 84 84 84 85
62 62 63 64 66 67 68 69 69 69 70 71 72 73 75 77 79 82 86 91 95 99 101 103 103 103 103 103 102 100 98 95 92 90 88 86 85 84 83 83 84 84 83 82 81 80 79 79 78 78 79 79 79 80 80 81 82 84 87 90 91 91 90 89 88 86 85 83 82 82 83 84 85 85 85 86 87 88 88 86 85 84 84 84 84
62 63 62 62 62 62 62 62 62 63 63 64 66 67 68 69 72 74 76 80 84 88 92 96 97 99 100 102 104 104 103 100 97 93 91 88 86 84 83 83 83 83 83 83 82 80 80 79 78 77 77 77 77 78 78 78 78 79 81 84 87 89 90 90 89 88 87 86 84 83 83 83 84 85 85 86 87 89 89 88 87 86 86 86 86
61 61 60 59 59 57 57 56 57 57 58 59 60 61 62 64 65 67 69 71 73 76 80 83 86 89 92 95 99 102 103 102 100 98 95 92 89 87 84 83 82 83 82 82 82 81 80 80 79 78 77 76 76 76 77 77 77 77 77 78 80 83 87 89 90 89 89 88 87 86 85 85 84 84 85 86 88 89 89 89 89 89 89 89 88
58 58 57 57 56 54 53 53 53 54 55 55 56 56 57 58 59 62 63 64 65 67 68 70 72 75 80 85 89 94 97 97 98 98 96 94 92 89 86 84 83 82 82 81 81 80 80 79 79 79 78 77 77 76 77 77 77 78 78 78 78 78 80 83 86 88 89 90 89 89 88 87 86 85 85 86 88 89 90 90 91 91 91 91 90
55 56 55 55 54 52 51 51 51 52 52 52 52 53 53 53 55 56 56 57 58 58 57 58 60 63 68 72 77 82 85 87 89 92 92 92 91 89 87 86 84 83 81 80 79 79 79 79 79 78 78 78 77 77 77 77 77 77 78 79 79 78 78 78 79 82 85 88 90 91 91 90 88 87 87 87 88 89 91 92 92 93 93 92 90
53 54 54 53 53 51 50 49 49 50 50 50 49 50 50 50 51 51 50 50 50 49 49 50 52 54 57 60 63 68 71 73 76 81 83 84 85 85 84 84 84 83 81 79 78 78 77 78 78 78 77 77 77 78 78 78 78 78 79 79 79 79 79 79 79 79 80 82 85 89 91 92 91 90 89 88 89 90 92 93 94 94 93 92 91
52 52 52 52 52 51 50 49 48 47 48 48 48 47 47 47 46 47 45 44 43 41 41 43 45 46 47 49 51 55 58 61 63 67 70 73 75 76 77 79 80 80 79 78 78 77 76 76 76 76 76 76 76 77 78 78 79 79 80 80 79 79 80 80 80 80 80 80 81 83 86 89 92 93 92 91 91 91 93 94 95 94 93 92 91
52 52 51 51 51 50 49 49 48 47 47 47 46 45 45 43 42 42 41 39 38 36 36 36 37 39 40 41 43 45 48 50 51 53 56 59 62 64 67 70 72 73 74 75 76 76 75 75 74 75 75 75 76 77 77 78 78 79 80 80 80 80 80 80 80 80 81 81 81 81 82 83 86 89 92 94 95 95 95 96 96 95 95 94 92
51 51 51 50 50 49 48 47 47 47 46 46 45 44 43 41 39 38 37 36 34 32 31 31 31 33 34 35 37 39 39 40 41 42 44 47 50 53 56 60 62 64 67 69 71 72 73 74 73 73 74 75 75 76 77 77 78 79 79 80 80 80 80 80 80 81 81 81 82 82 83 83 83 84 87 90 94 97 99 99 99 98 98 97 96
49 50 51 51 50 49 47 46 46 46 45 44 44 42 41 39 38 36 35 34 32 30 28 28 27 28 29 30 31 32 32 32 32 33 34 36 39 42 45 49 52 55 58 61 63 65 67 69 70 70 71 72 73 74 76 77 77 78 79 79 80 80 80 80 81 81 81 82 82 82 83 84 84 84 84 86 89 92 96 98 100 101 102 101 100
48 48 48 49 49 48 47 45 44 44 44 43 41 40 38 37 36 35 34 32 30 28 27 26 24 24 25 25 25 25 25 25 25 25 26 28 30 33 36 39 42 46 49 51 54 56 58 60 62 63 65 66 68 70 72 73 74 75 77 78 79 79 80 80 81 81 81 81 82 83 84 84 85 85 85 85 86 88 89 91 94 98 100 101 102
49 48 47 47 46 46 46 45 44 44 43 42 40 38 37 36 35 33 32 31 29 27 25 24 23 22 21 21 20 20 19 19 19 19 20 21 23 25 28 31 34 37 40 43 45 48 50 52 54 56 58 60 62 64 66 69 70 71 73 75 76 77 77 78 79 80 80 81 81 82 83 84 85 85 85 85 86 86 86 87 88 90 92 95 97
48 48 47 46 46 45 45 44 44 43 42 41 40 38 36 35 34 33 32 31 29 27 25 23 21 20 19 18 17 16 16 15 16 16 16 18 20 21 23 26 29 31 34 37 39 42 44 46 48 50 52 55 57 59 61 63 65 67 69 71 72 73 73 75 76 77 78 79 80 80 81 83 83 84 84 85 85 86 85 84 84 85 86 88 90
47 47 46 46 45 44 43 43 42 42 41 40 39 38 36 35 34 33 32 30 29 27 25 23 21 19 18 16 15 14 13 13 13 14 15 17 19 20 22 24 26 29 31 34 36 38 40 42 44 47 48 50 53 55 57 59 61 63 65 67 68 69 70 71 72 74 74 75 76 78 79 80 80 81 82 82 83 84 84 82 82 82 83 83 83
47 46 46 45 44 43 42 42 41 41 40 39 38 37 36 35 34 33 31 30 28 26 24 22 20 18 16 15 14 13 13 13 13 14 15 17 19 21 22 24 26 28 30 32 34 36 38 40 42 43 45 46 47 49 50 51 53 55 57 59 62 63 64 66 67 68 69 70 71 72 74 75 76 76 77 78 80 81 81 80 80 80 79 78 78
46 46 46 45 44 43 42 41 40 39 39 38 38 37 35 34 34 32 31 29 27 25 24 21 19 17 16 15 14 13 13 14 14 15 16 17 19 20 22 23 25 26 28 29 31 32 34 35 36 37 38 39 39 40 40 41 41 42 43 45 48 50 52 54 57 59 61 62 63 65 66 68 68 70 71 73 74 77 77 77 77 77 76 76 77
46 45 45 45 44 43 42 41 40 39 38 37 36 35 34 33 33 31 30 28 26 24 23 21 19 17 17 16 15 14 15 15 15 15 16 17 18 19 20 22 23 24 25 26 28 29 30 31 33 34 35 36 36 35 35 35 35 35 35 36 37 39 39 41 43 46 49 52 55 57 59 61 62 63 65 67 69 71 73 73 74 74 74 75 77
45 44 44 44 44 43 41 40 39 38 37 35 34 34 33 32 31 30 29 28 26 24 22 20 19 18 17 16 15 15 15 16 16 16 17 18 18 19 20 21 21 22 23 24 25 26 28 29 30 32 33 34 34 34 34 34 34 34 34 34 35 35 35 35 36 38 41 43 46 49 52 55 57 59 61 63 65 67 69 70 70 71 72 74 77
45 44 44 44 43 42 41 40 39 38 36 35 33 32 32 31 30 28 27 27 26 24 22 20 18 17 16 16 16 16 16 17 18 18 18 18 19 19 20 20 20 21 21 22 23 24 25 26 28 29 30 31 32 33 33 33 33 33 33 33 34 34 34 34 35 36 39 40 41 43 45 48 51 54 57 59 61 63 65 67 68 69 70 73 75
45 43 43 43 43 42 41 40 39 38 36 35 33 31 31 30 29 27 25 25 24 24 22 20 18 17 17 17 17 17 18 19 19 19 19 19 19 19 19 20 20 20 21 21 22 23 23 24 25 26 28 29 30 31 32 32 32 32 32 32 32 32 33 33 33 34 36 38 39 40 41 43 45 48 50 53 56 59 61 64 65 66 68 70 72
46 44 43 42 42 42 41 40 39 38 37 35 33 31 30 30 29 28 25 24 23 22 22 21 20 19 18 18 19 19 20 20 21 21 20 20 19 19 20 20 20 20 20 21 22 22 23 23 24 25 25 26 28 29 30 30 31 31 31 31 31 31 30 30 31 31 32 34 36 37 39 40 41 43 45 47 50 53 57 60 62 63 65 67 68
46 45 43 42 42 41 40 39 39 38 37 36 34 32 30 29 29 28 26 24 22 21 21 21 21 21 20 20 21 21 22 22 22 21 21 21 21 20 20 20 21 21 21 21 22 23 23 24 24 25 25 25 26 27 28 29 29 29 29 30 30 29 29 29 29 29 29 30 32 34 35 37 38 40 41 43 45 47 51 54 57 60 62 63 65
Wind_Direction
274 274 274 274 273 271 270 269 269 269 269 269 268 267 267 268 267 267 267 267 266 265 263 263 264 264 264 264 264 263 262 261 259 259 258 257 257 258 259 260 262 262 261 259 258 256 255 255 255 256 256 256 256 256 256 257 258 258 258 258 258 258 258 258 258 257 257 257 257 257 257 256 255 255 255 255 255 256 256 257 257 257 257 256 256
269 270 271 271 272 271 271 270 268 267 267 267 267 266 265 265 265 265 265 265 265 265 264 262 262 263 263 262 262 262 261 260 259 258 258 257 257 258 259 259 260 262 261 261 260 258 258 259 258 258 258 258 258 258 258 259 259 259 259 259 259 258 257 256 256 255 255 255 254 254 254 255 255 255 256 256 256 255 256 256 256 256 256 256 256
268 268 267 267 268 269 269 270 269 267 266 265 265 264 264 263 263 264 264 264 264 265 264 263 261 262 263 261 261 260 260 259 259 259 259 258 258 259 260 260 260 261 261 262 263 262 261 262 262 261 260 260 259 259 260 260 260 259 259 258 257 256 255 254 253 253 253 253 253 253 253 254 254 255 255 255 255 255 255 255 255 255 255 255 255
271 269 268 266 266 266 266 267 267 267 266 265 264 263 262 262 262 262 263 263 264 264 263 262 261 260 261 261 261 260 259 259 258 258 258 259 259 260 261 261 261 262 261 262 264 265 264 263 263 263 262 261 261 260 260 259 259 259 258 257 256 255 254 253 251 250 251 251 252 252 252 252 252 253 254 254 254 254 254 254 254 254 254 254 254
273 271 270 268 266 265 264 264 264 264 264 264 262 261 261 261 261 262 262 262 263 263 262 261 260 259 259 259 259 259 259 258 258 257 256 257 258 259 260 260 260 260 259 259 261 263 264 264 263 262 263 262 262 261 260 258 257 258 258 257 257 256 254 253 251 250 251 251 251 251 251 252 252 252 252 252 253 253 253 253 254 254 254 253 253
274 273 272 270 269 267 265 264 263 262 262 262 261 260 260 260 261 261 262 262 262 261 260 259 259 257 257 257 257 257 258 258 257 257 257 256 256 256 256 257 257 257 257 257 258 260 262 263 264 263 263 263 262 260 260 258 258 257 257 256 256 255 255 253 253 252 252 252 252 252 252 252 251 251 251 252 252 252 252 253 253 253 252 252 252
275 274 273 272 271 269 267 265 263 262 261 261 260 260 260 259 260 260 261 261 261 259 258 257 256 255 255 255 255 255 256 256 257 257 257 257 257 256 256 256 256 258 259 258 259 259 259 260 262 263 263 263 262 261 260 259 258 257 257 256 255 254 254 254 254 253 253 254 254 253 252 252 251 251 252 252 252 252 252 252 252 252 252 252 252
275 274 273 272 271 270 269 267 265 263 261 260 259 259 259 259 259 259 259 259 259 257 256 254 254 253 253 252 252 253 253 254 256 256 256 256 256 256 256 255 255 257 259 260 259 259 259 259 261 263 263 263 263 262 262 260 259 258 258 257 256 255 255 254 254 254 254 255 254 253 253 252 251 251 251 251 251 252 252 252 253 253 252 252 252
274 274 273 272 271 270 269 268 266 264 262 260 259 258 258 258 258 258 257 257 256 255 254 252 252 252 252 251 251 251 251 252 253 255 255 255 255 255 255 254 253 253 255 257 258 258 259 259 261 262 263 263 263 263 262 262 260 259 259 258 257 256 255 254 254 254 254 255 255 254 254 254 253 251 251 251 252 252 252 252 252 252 253 252 252
274 273 272 272 271 270 269 268 266 264 261 259 257 256 256 256 256 256 255 255 254 253 252 251 250 250 251 251 250 250 250 250 251 253 253 254 254 254 254 253 253 252 251 252 254 256 257 259 260 262 262 262 262 263 263 263 262 261 260 259 258 257 256 255 255 254 253 254 254 255 255 255 255 254 253 253 253 252 252 252 252 252 252 251 251
275 274 273 272 271 271 270 268 266 264 261 258 255 253 253 254 254 253 253 252 251 251 250 249 249 249 249 250 250 250 250 250 251 252 252 253 253 252 252 252 252 251 251 250 251 252 254 256 258 260 261 262 262 262 262 263 263 262 261 260 259 258 257 256 255 254 253 253 254 254 254 254 254 254 254 253 252 252 252 252 252 252 251 251 252
276 275 274 273 272 271 270 269 268 266 264 261 258 255 252 251 251 252 251 250 250 250 250 250 249 249 249 250 250 251 251 251 252 252 253 253 252 251 251 250 250 250 249 249 248 249 250 252 254 255 257 259 260 261 262 262 262 262 261 260 260 259 257 256 256 255 255 254 253 253 253 253 253 253 253 252 252 252 252 252 253 253 253 254 254
277 276 275 274 273 272 272 271 270 269 267 265 263 260 256 252 250 250 251 250 250 249 250 251 252 252 252 252 252 252 252 253 253 253 253 253 252 251 250 249 248 248 248 248 247 247 248 249 250 252 254 255 257 258 259 259 260 260 260 260 260 259 257 255 256 256 256 255 254 253 253 254 253 252 251 251 251 251 251 251 252 253 254 255 255
277 276 275 274 273 272 272 271 270 269 268 267 265 263 261 257 254 252 251 251 251 251 251 252 253 253 254 254 255 255 254 254 254 254 253 252 252 251 250 249 248 247 247 247 247 247 247 247 248 249 251 252 254 254 255 256 257 258 259 259 259 260 258 256 256 256 256 256 256 255 255 255 255 254 252 252 251 251 251 251 251 251 253 254 254
277 275 274 273 272 271 270 270 270 269 268 268 267 265 263 261 258 256 253 252 252 252 253 254 255 256 255 255 255 255 255 255 255 254 253 251 251 250 250 249 248 247 246 246 247 247 248 247 247 248 248 249 251 252 252 253 254 255 256 257 257 258 259 258 257 256 257 257 258 257 256 256 255 255 255 254 253 252 252 251 251 250 251 252 253
277 275 274 272 271 270 268 268 268 268 267 266 266 265 265 263 261 259 257 255 253 252 252 252 254 255 256 256 255 255 255 255 254 253 252 251 250 249 249 249 248 248 247 246 246 247 248 248 248 248 248 248 248 249 250 251 251 252 253 254 255 256 258 258 257 257 257 257 257 257 256 256 256 255 255 255 255 254 253 252 252 252 252 252 251
276 276 275 274 272 271 269 267 267 267 266 266 265 265 264 263 262 261 259 257 255 253 252 252 252 252 253 254 255 255 254 254 253 253 252 251 250 249 249 249 249 249 248 247 247 247 248 249 249 250 249 249 248 248 249 249 250 250 251 252 253 254 255 256 256 256 255 255 256 257 257 256 256 255 255 256 256 255 254 254 254 255 254 253 252
272 273 273 273 272 272 273 271 269 267 266 266 265 264 264 263 262 262 260 259 257 254 252 252 252 253 253 252 252 252 252 253 253 252 252 251 250 250 249 249 250 250 249 248 248 247 248 248 249 250 250 250 250 249 249 248 249 249 249 249 251 252 253 254 254 254 254 253 253 254 255 256 256 256 255 255 255 256 255 255 256 256 256 256 255
268 269 269 271 272 274 274 274 271 269 267 267 266 265 264 263 262 261 260 259 258 256 254 252 251 251 252 253 253 252 251 251 251 251 251 251 250 250 250 250 250 250 251 250 249 249 249 249 249 249 250 250 250 249 249 249 248 248 247 247 248 250 251 252 252 253 254 254 253 252 252 253 254 255 256 255 255 255 256 256 256 256 256 256 256
273 273 273 274 275 275 273 272 272 270 269 268 267 266 265 264 263 262 261 260 259 258 256 255 253 251 250 252 253 254 253 251 250 250 250 251 251 250 250 250 250 250 250 250 250 250 250 250 250 250 250 250 250 250 249 249 249 248 248 247 247 248 250 251 251 252 253 255 255 253 250 250 251 252 253 255 256 255 255 256 256 256 256 256 256
277 276 275 274 275 275 274 273 272 271 269 268 267 266 265 264 264 264 263 261 260 259 258 257 256 254 252 251 251 253 254 253 252 251 251 250 250 250 250 250 250 250 250 250 250 250 250 250 251 250 250 250 250 250 249 249 249 249 249 248 247 247 248 249 250 251 251 252 254 255 253 251 250 249 248 250 253 255 255 256 256 256 257 256 256
277 275 273 272 272 273 273 273 273 272 270 269 267 267 266 265 265 265 265 264 263 261 260 258 257 256 255 254 252 252 252 253 253 253 252 252 251 251 250 250 250 250 250 251 251 250 249 249 250 250 250 250 250 250 250 249 249 249 250 249 249 248 248 248 248 249 249 249 250 253 254 254 253 252 249 247 248 250 253 254 255 256 256 257 257
276 274 273 273 273 273 273 273 274 274 273 272 271 270 269 268 267 266 266 266 265 264 262 260 259 258 257 256 254 253 252 252 252 253 253 253 252 252 252 251 251 250 250 250 251 251 251 250 249 249 250 250 250 250 250 250 250 250 250 250 249 249 248 248 247 248 248 248 247 248 250 252 254 254 253 250 248 247 248 249 251 252 254 255 256
277 276 276 275 275 274 274 274 274 274 274 274 273 273 272 271 271 269 268 267 266 265 264 263 261 260 258 257 256 255 253 252 252 252 252 252 252 252 252 252 252 251 251 250 251 251 252 252 251 250 250 250 250 250 250 250 250 250 250 250 249 249 249 249 249 248 248 247 247 246 246 248 249 251 253 253 252 250 248 247 247 248 249 251 253
280 280 279 278 277 276 275 274 274 273 273 272 272 272 272 272 271 270 270 269 267 266 265 264 263 262 260 259 257 256 255 254 252 251 251 252 252 252 252 253 253 252 252 252 252 251 252 252 252 253 252 251 251 251 251 251 251 251 251 250 250 249 249 249 250 249 249 248 247 246 246 246 246 247 248 250 252 252 251 250 248 247 247 247 249
284 282 281 280 279 278 277 276 275 274 273 272 271 271 271 271 271 270 269 269 268 267 266 265 264 263 262 261 259 258 257 256 255 253 251 251 252 252 252 252 253 253 253 253 253 252 252 252 252 252 253 253 252 252 251 251 251 251 251 251 250 250 250 249 249 249 249 249 248 247 246 246 247 247 246 247 249 251 252 252 251 250 248 247 246
289 287 286 284 283 281 279 277 275 274 273 272 272 271 271 270 270 270 269 268 268 267 266 265 265 264 263 262 261 260 259 258 257 256 254 253 252 252 252 252 252 253 253 253 253 252 252 252 252 251 252 252 252 252 252 251 251 251 251 250 251 251 251 250 250 249 249 248 249 248 247 247 248 248 248 247 247 248 250 252 253 253 253 251 248
295 294 293 291 289 286 283 281 279 277 275 274 272 271 271 270 269 269 268 268 268 267 266 265 265 264 264 263 262 261 260 259 258 258 257 256 255 254 253 252 252 251 252 253 253 252 252 252 252 251 251 251 251 252 252 252 251 251 251 251 251 251 251 251 251 250 249 248 248 248 248 248 248 249 249 249 249 249 249 250 251 252 254 255 254
300 300 298 296 294 292 290 288 286 284 282 280 277 275 273 272 271 269 268 267 267 266 266 265 265 265 264 264 263 261 260 259 258 258 257 257 256 256 255 254 253 252 251 252 252 253 252 252 252 251 251 251 251 251 251 251 251 251 251 251 251 251 251 251 251 251 251 250 248 248 248 248 249 249 249 249 249 249 249 249 250 251 253 254 256
305 304 303 300 298 297 296 294 292 291 289 287 284 282 279 277 274 272 271 269 268 267 266 265 265 264 264 264 263 262 261 259 258 258 257 257 256 256 256 255 254 253 252 252 252 252 253 253 252 252 251 251 251 251 251 251 251 251 251 251 251 252 252 252 251 251 251 251 250 249 248 248 248 248 249 249 248 249 249 250 250 251 252 254 255
310 310 309 307 305 304 303 300 297 295 293 292 290 288 285 283 280 277 275 273 271 269 267 266 265 264 264 263 263 262 261 260 259 258 257 257 256 256 256 255 255 254 253 253 252 252 253 253 253 253 253 252 251 251 251 251 251 251 251 251 250 251 251 251 251 251 251 250 250 250 249 249 248 248 248 249 249 249 250 251 251 251 251 252 253
314 315 314 314 313 312 310 307 303 301 298 296 294 292 290 288 286 283 281 278 276 274 271 269 268 266 265 264 263 262 261 261 260 259 257 256 256 255 255 255 255 255 255 254 253 253 253 253 253 254 254 254 253 252 251 251 251 251 251 251 250 250 250 250 250 250 251 251 251 250 250 250 250 249 249 249 248 249 249 250 251 251 251 251 252
316 317 317 317 317 317 315 312 309 306 303 301 299 297 295 293 291 288 287 285 283 280 278 275 272 269 266 264 263 263 262 261 261 260 258 257 256 255 254 254 254 254 255 254 254 254 253 253 253 253 254 254 254 254 253 253 252 252 252 252 251 250 250 250 249 249 249 249 250 250 250 250 250 250 250 249 249 249 249 249 250 250 251 251 251
318 318 319 319 320 320 318 316 313 311 308 306 304 301 299 297 295 293 291 289 287 286 284 280 276 272 268 266 264 264 263 262 261 260 259 258 257 255 254 253 253 253 253 253 254 254 254 253 253 253 253 253 254 255 255 254 254 253 253 253 252 252 251 251 250 250 249 248 248 248 249 249 249 249 249 249 249 248 248 248 248 249 249 250 250
319 319 320 320 321 322 321 319 317 315 314 311 309 305 303 301 299 298 296 293 291 289 287 283 280 276 273 270 267 266 264 263 261 260 260 258 258 256 254 253 252 252 252 252 252 252 253 253 253 253 252 253 253 254 254 255 255 255 254 254 253 253 253 252 251 251 250 249 249 248 248 248 248 248 248 248 248 247 247 247 247 247 248 248 249
320 321 321 321 322 323 324 323 322 320 317 315 313 311 309 307 305 303 301 299 296 294 289 285 283 280 277 274 271 268 266 264 262 260 260 258 257 256 254 253 252 251 251 250 250 250 250 251 252 252 253 253 253 253 254 254 255 255 255 255 254 254 254 253 253 253 252 251 250 250 249 248 248 247 247 246 246 246 246 246 246 247 247 247 248
322 323 322 322 323 324 325 324 324 323 320 318 317 316 314 313 311 309 306 304 302 298 294 289 286 283 280 277 273 271 268 266 264 262 260 258 256 254 253 252 251 250 250 249 249 249 249 250 250 251 252 253 253 254 254 254 254 255 255 255 255 255 255 254 254 254 254 253 252 252 251 250 249 248 247 247 246 245 245 245 245 246 246 247 247
323 324 324 323 323 324 325 324 323 323 322 321 321 321 320 319 317 314 312 310 307 304 300 295 290 286 282 279 276 274 272 269 267 264 261 258 255 253 251 250 249 249 248 248 248 248 248 249 250 251 252 252 253 254 254 255 255 255 256 256 256 256 256 255 255 255 255 254 254 254 253 252 251 249 248 247 247 246 246 245 245 245 246 246 246
324 324 325 324 324 325 325 325 324 323 323 323 323 323 323 323 321 319 317 315 313 310 306 301 295 290 286 282 279 277 275 272 269 265 261 258 255 252 250 248 247 247 246 246 246 246 247 248 249 250 251 252 252 253 254 255 255 255 256 256 256 256 256 256 256 256 256 255 255 255 255 254 253 252 250 249 248 247 247 247 247 247 247 247 247
324 324 324 324 324 324 324 325 324 323 323 323 324 325 324 324 323 321 320 319 317 315 312 308 303 297 292 288 285 281 279 275 270 265 262 258 255 252 250 248 246 245 245 245 245 245 246 247 248 249 250 251 251 252 253 254 255 255 255 256 256 256 256 256 256 256 256 255 255 255 255 255 254 253 252 251 250 249 248 248 248 248 248 248 248
324 324 324 323 324 324 325 325 325 324 324 324 325 325 325 324 324 322 322 321 320 319 317 314 310 306 300 296 292 288 284 279 274 268 264 260 256 253 251 249 247 245 245 244 245 245 245 246 247 248 249 250 251 251 252 253 254 255 255 256 256 256 256 256 256 255 255 255 255 255 255 255 254 254 254 253 252 251 250 249 249 248 248 248 248
323 323 323 323 324 324 325 325 325 325 325 325 325 326 325 325 324 324 323 323 322 322 321 319 315 311 307 302 297 292 287 282 277 271 266 262 258 254 251 249 248 246 246 246 246 246 247 248 249 250 251 252 252 253 253 254 255 255 256 256 256 256 256 256 256 255 255 255 254 254 254 254 254 253 253 253 253 253 252 250 250 249 248 247 247
321 321 321 322 323 324 324 324 324 324 325 326 325 325 325 324 323 323 323 323 322 322 322 320 317 313 308 304 300 294 288 282 276 271 266 261 258 255 252 250 248 248 248 248 249 249 250 251 252 253 254 255 255 256 256 256 257 257 257 257 257 257 256 256 256 255 255 255 254 254 253 253 252 252 251 251 251 251 251 250 249 248 247 246 246
320 320 321 321 322 323 324 324 323 323 324 325 325 325 324 323 321 321 321 321 321 321 319 318 315 311 306 302 298 292 287 282 277 272 268 264 261 260 257 255 253 252 251 252 252 252 253 253 254 255 256 257 257 258 258 258 258 258 258 258 258 257 256 256 255 255 255 254 254 254 253 253 252 251 249 248 248 248 248 248 248 247 246 244 243
320 320 320 320 321 322 322 322 322 323 324 325 325 325 324 322 320 319 318 319 319 318 316 314 311 307 303 299 294 290 286 282 279 275 272 269 267 265 263 261 258 256 255 254 254 254 254 254 255 255 256 256 257 257 257 257 257 257 257 257 258 257 256 256 255 255 254 254 253 253 253 252 251 250 248 247 246 245 245 245 245 245 244 242 241
319 319 319 319 319 320 320 321 321 322 323 325 325 324 323 321 319 317 316 317 316 315 312 310 307 303 300 296 293 291 288 285 282 278 276 273 271 269 267 265 262 259 257 256 255 255 255 255 256 256 256 257 256 256 256 256 256 256 257 257 258 258 257 256 255 255 254 253 253 252 252 251 250 249 247 246 244 244 243 243 243 243 243 241 240
318 317 317 317 317 318 318 318 318 320 322 324 324 324 322 320 319 316 314 313 313 311 309 306 304 301 298 296 294 292 291 289 287 284 281 279 276 274 271 268 265 262 259 257 257 257 257 257 258 258 258 258 257 257 257 257 257 257 257 258 259 260 260 258 257 256 256 254 253 252 252 251 249 248 247 245 244 244 243 243 242 242 241 241 240
318 317 316 316 316 315 315 315 316 317 319 321 323 322 321 320 319 316 312 310 309 307 305 303 301 299 296 294 294 293 293 292 290 288 285 282 279 277 274 271 268 265 262 259 258 258 258 258 259 259 259 258 258 257 257 257 258 258 259 260 261 262 262 261 259 257 257 256 255 255 254 253 252 250 248 247 246 245 245 244 243 242 241 241 241
318 316 315 314 314 313 313 314 314 315 316 318 319 320 321 321 320 318 314 310 307 305 302 299 297 295 292 290 291 291 292 292 291 289 286 283 281 279 277 275 271 268 264 262 260 259 258 259 259 259 259 258 258 258 259 259 260 260 260 261 262 262 263 262 260 258 258 258 257 257 256 255 254 253 251 249 248 247 246 245 244 242 241 242 242
318 316 314 312 312 311 312 312 312 312 313 314 315 316 318 319 320 320 316 312 308 304 300 295 292 290 289 288 288 289 289 289 289 287 285 283 281 280 279 277 273 270 267 265 263 262 261 260 260 260 259 259 259 259 260 260 260 261 261 261 262 263 264 263 262 260 260 260 259 258 258 257 256 255 254 251 249 248 248 247 246 244 243 243 243
318 316 314 312 310 309 310 310 310 310 309 310 311 312 313 314 316 317 317 313 309 304 299 294 290 287 287 286 287 287 287 287 286 285 284 283 282 281 279 277 274 271 269 267 265 264 263 262 262 262 261 260 260 260 261 261 261 262 262 262 263 264 264 264 263 262 261 261 261 260 259 259 258 257 255 254 252 250 249 248 247 246 245 244 244